Quillayute, WA
on Tuesday, December 11, 2012

Tuesday
Previous Day Next Day
Daily Summary
 ActualAverageRecord
Temperature
Mean Temperature °F 40°F  
Max Temperature 48°F 46°F 55°F (2014)
Min Temperature 41°F 35°F 20°F (1985)
Degree Days
Heating Degree Days 20 25  
Month to date heating degree days 267  
Since 1 July heating degree days 1981  
Cooling Degree Days 0 0  
Month to date cooling degree days 0  
Year to date cooling degree days 19  
Moisture
Dew Point 43°F   
Average Humidity 95    
Maximum Humidity 100    
Minimum Humidity 89    
Precipitation
Precipitation 0.93 in 0.42 in 2.17 in (2010)
Month to date precipitation 4.91  
Year to date precipitation 91.46  
Wind
Wind Speed 4 mph   
Max Wind Speed 15 mph   
Max Gust Speed 21 mph   
Visibility 3 miles   
Events Fog , Rain   

Key: T is trace of precipitation, MM is missing value
Source: NWS Daily Summary
Time(PST)TemperatureDew PointHumidity Pressure Visibility Wind DirectionWind SpeedGust SpeedPrecipitationEvents Conditions
12:13 AM 42.8°F 42.8°F 100% 30.04 in 2.5 miles SSE 5.8 mph - 0.00 in Rain Light Rain
12:24 AM 42.8°F 42.8°F 100% 30.03 in 2.5 miles SSE 6.9 mph - 0.01 in Rain Light Rain
12:44 AM 42.8°F 42.8°F 100% 30.01 in 1.8 miles South 4.6 mph - 0.01 in Rain Light Rain
12:53 AM 43.0°F 43.0°F 100% 30.01 in 1.5 miles Variable 4.6 mph - 0.02 in Rain Light Rain
1:08 AM 44.6°F 42.8°F 93% 29.99 in 1.2 miles South 5.8 mph - 0.01 in Rain Light Rain
1:13 AM 44.6°F 42.8°F 93% 29.99 in 2.0 miles Variable 5.8 mph - 0.01 in Rain Light Rain
1:23 AM 44.6°F 42.8°F 93% 29.98 in 3.0 miles Variable 4.6 mph - 0.01 in   Overcast
1:31 AM 44.6°F 42.8°F 93% 29.98 in 2.0 miles Variable 4.6 mph - 0.01 in Rain Light Rain
1:53 AM 44.1°F 43.0°F 96% 29.97 in 2.5 miles SSW 4.6 mph - 0.02 in Rain Light Rain
2:20 AM 44.6°F 42.8°F 93% 29.95 in 4.0 miles South 6.9 mph - 0.01 in   Overcast
2:37 AM 44.6°F 44.6°F 100% 29.94 in 1.8 miles South 8.1 mph - 0.02 in Rain Light Rain
2:44 AM 44.6°F 42.8°F 93% 29.93 in 3.0 miles SSE 6.9 mph - 0.02 in Rain Light Rain
2:53 AM 44.1°F 43.0°F 96% 29.93 in 4.0 miles South 5.8 mph - 0.02 in   Overcast
3:44 AM 44.6°F 44.6°F 100% 29.87 in 2.5 miles SSE 6.9 mph - 0.00 in Rain Light Rain
3:48 AM 44.6°F 44.6°F 100% 29.88 in 1.5 miles SSW 8.1 mph - 0.00 in Rain Light Rain
3:53 AM 45.0°F 44.1°F 97% 29.88 in 1.2 miles SSW 5.8 mph - 0.02 in Rain Light Rain
4:34 AM 44.6°F 44.6°F 100% 29.85 in 2.0 miles Variable 4.6 mph - 0.05 in Rain Light Rain
4:50 AM 44.6°F 44.6°F 100% 29.83 in 3.0 miles Variable 5.8 mph - 0.05 in   Overcast
4:53 AM 45.0°F 44.1°F 97% 29.83 in 3.0 miles South 5.8 mph - 0.05 in   Overcast
5:16 AM 44.6°F 44.6°F 100% 29.80 in 4.0 miles Variable 4.6 mph - N/A   Overcast
5:28 AM 44.6°F 42.8°F 93% 29.78 in 4.0 miles SSE 8.1 mph - N/A   Overcast
5:45 AM 44.6°F 42.8°F 93% 29.77 in 2.5 miles South 6.9 mph - 0.02 in Rain Light Rain
5:53 AM 44.1°F 43.0°F 96% 29.78 in 2.0 miles South 4.6 mph - 0.03 in Rain Light Rain
6:11 AM 44.6°F 42.8°F 93% 29.76 in 1.5 miles SSE 4.6 mph - 0.05 in Rain Rain
6:26 AM 44.6°F 42.8°F 93% 29.75 in 2.0 miles Variable 4.6 mph - 0.09 in Rain Light Rain
6:45 AM 44.6°F 42.8°F 93% 29.74 in 3.0 miles SE 8.1 mph - 0.11 in Rain Light Rain
6:53 AM 44.1°F 43.0°F 96% 29.74 in 2.5 miles SSE 6.9 mph - 0.12 in Rain Light Rain
7:11 AM 44.6°F 42.8°F 93% 29.72 in 3.0 miles South 8.1 mph - 0.01 in Rain Light Rain
7:49 AM 44.6°F 42.8°F 93% 29.69 in 1.8 miles SSE 5.8 mph - 0.01 in Rain Light Rain
7:50 AM 44.1°F 43.0°F 96% 29.69 in 1.8 miles SSE 6.9 mph - 0.01 in Rain Light Rain
8:21 AM 44.6°F 42.8°F 93% 29.67 in 1.2 miles SSE 10.4 mph 18.4 mph 0.01 in Rain Light Rain
8:29 AM 44.6°F 42.8°F 93% 29.66 in 2.0 miles SE 9.2 mph 16.1 mph 0.02 in Rain Light Rain
8:48 AM 44.6°F 42.8°F 93% 29.66 in 1.5 miles SSE 10.4 mph 17.3 mph 0.02 in Rain Light Rain
8:53 AM 44.1°F 43.0°F 96% 29.66 in 1.8 miles SSE 9.2 mph - 0.03 in Rain Light Rain
9:10 AM 44.6°F 42.8°F 93% 29.64 in 1.2 miles SE 10.4 mph - 0.03 in Rain Light Rain
9:23 AM 44.6°F 42.8°F 93% 29.63 in 1.0 miles SE 10.4 mph 20.7 mph 0.06 in Rain Light Rain
9:53 AM 45.0°F 44.1°F 97% 29.63 in 1.0 miles SE 9.2 mph 19.6 mph 0.13 in Rain Rain
10:01 AM 44.6°F 44.6°F 100% 29.62 in 0.5 miles SE 8.1 mph - 0.03 in Fog , Rain Rain
10:50 AM 44.6°F 44.6°F 100% 29.60 in 0.8 miles Calm Calm - 0.20 in Rain Rain
10:53 AM 45.0°F 44.1°F 97% 29.61 in 1.0 miles Variable 3.5 mph - 0.21 in Rain Rain
10:57 AM 44.6°F 44.6°F 100% 29.60 in 1.2 miles Calm Calm - 0.01 in Rain Light Rain
11:02 AM 44.6°F 44.6°F 100% 29.60 in 1.5 miles SE 4.6 mph - 0.02 in Rain Rain
11:09 AM 44.6°F 44.6°F 100% 29.59 in 2.0 miles SE 6.9 mph - 0.03 in Rain Light Rain
11:14 AM 44.6°F 44.6°F 100% 29.59 in 1.2 miles East 5.8 mph - 0.03 in Rain Rain
11:16 AM 44.6°F 44.6°F 100% 29.59 in 0.8 miles Variable 3.5 mph - 0.04 in Rain Rain
11:24 AM 44.6°F 44.6°F 100% 29.58 in 0.8 miles ESE 6.9 mph - 0.06 in Rain Rain
11:27 AM 44.6°F 44.6°F 100% 29.59 in 1.0 miles Variable 5.8 mph - 0.07 in Rain Light Rain
11:35 AM 46.4°F 44.6°F 93% 29.58 in 1.5 miles WNW 10.4 mph - 0.09 in Rain Light Rain
11:40 AM 46.4°F 44.6°F 93% 29.58 in 2.0 miles Variable 4.6 mph - 0.09 in Rain Light Rain
11:53 AM 46.9°F 45.0°F 93% 29.58 in 2.0 miles Calm Calm - 0.10 in Rain Light Rain
12:05 PM 46.4°F 44.6°F 93% 29.58 in 4.0 miles Calm Calm - 0.00 in Rain Light Rain
12:24 PM 46.4°F 46.4°F 100% 29.58 in 2.5 miles Calm Calm - 0.00 in Rain Light Rain
12:35 PM 48.2°F 46.4°F 93% 29.58 in 3.0 miles Calm Calm - 0.01 in Rain Light Rain
12:45 PM 48.2°F 46.4°F 93% 29.57 in 5.0 miles West 5.8 mph - 0.01 in   Overcast
12:53 PM 48.0°F 45.0°F 89% 29.57 in 5.0 miles West 5.8 mph - 0.01 in   Overcast
1:38 PM 46.4°F 44.6°F 93% 29.55 in 2.5 miles WNW 6.9 mph 16.1 mph 0.00 in Rain Light Rain
1:41 PM 46.4°F 44.6°F 93% 29.55 in 3.0 miles WNW 5.8 mph 16.1 mph 0.00 in Rain Light Rain
1:53 PM 46.9°F 45.0°F 93% 29.55 in 5.0 miles Calm Calm - 0.00 in   Overcast
2:33 PM 46.4°F 44.6°F 93% 29.54 in 5.0 miles Calm Calm - N/A   Overcast
2:53 PM 46.9°F 44.1°F 90% 29.54 in 4.0 miles Calm Calm - 0.00 in Rain Light Rain
3:02 PM 46.4°F 44.6°F 93% 29.53 in 1.8 miles Calm Calm - 0.00 in Rain Light Rain
3:08 PM 46.4°F 44.6°F 93% 29.53 in 0.8 miles Variable 3.5 mph - 0.00 in Rain Rain
3:11 PM 46.4°F 44.6°F 93% 29.53 in 1.0 miles West 6.9 mph - 0.02 in Rain Light Rain
3:17 PM 46.4°F 44.6°F 93% 29.53 in 2.0 miles WNW 4.6 mph - 0.02 in Rain Light Rain
3:20 PM 46.4°F 44.6°F 93% 29.53 in 3.0 miles NW 3.5 mph - 0.02 in Rain Light Rain
3:53 PM 45.0°F 43.0°F 93% 29.54 in 4.0 miles WNW 4.6 mph - 0.02 in Rain Light Rain
4:12 PM 44.6°F 42.8°F 93% 29.54 in 2.5 miles North 3.5 mph - 0.01 in Rain Light Rain
4:18 PM 44.6°F 42.8°F 93% 29.53 in 1.8 miles North 4.6 mph - 0.01 in Rain Light Rain
4:38 PM 44.6°F 42.8°F 93% 29.54 in 1.5 miles Calm Calm - 0.03 in Rain Light Rain
4:46 PM 44.6°F 42.8°F 93% 29.54 in 3.0 miles NW 4.6 mph - 0.04 in Rain Light Rain
4:53 PM 44.1°F 43.0°F 96% 29.55 in 6.0 miles NW 4.6 mph - 0.04 in   Overcast
5:00 PM 44.6°F 42.8°F 93% 29.55 in 1.8 miles West 4.6 mph - 0.01 in Rain Light Rain
5:11 PM 44.6°F 42.8°F 93% 29.55 in 3.0 miles Calm Calm - 0.03 in Rain Light Rain
5:19 PM 44.6°F 42.8°F 93% 29.55 in 7.0 miles Calm Calm - 0.03 in   Overcast
5:53 PM 44.1°F 43.0°F 96% 29.56 in 7.0 miles Calm Calm - 0.03 in   Mostly Cloudy
6:04 PM 44.6°F 42.8°F 93% 29.56 in 1.8 miles Variable 4.6 mph - 0.00 in Rain Light Rain
6:15 PM 42.8°F 42.8°F 100% 29.56 in 1.2 miles Variable 3.5 mph - 0.05 in Rain Rain
6:21 PM 42.8°F 41.0°F 93% 29.56 in 2.0 miles NNW 3.5 mph - 0.06 in Rain Light Rain
6:29 PM 42.8°F 41.0°F 93% 29.56 in 7.0 miles Calm Calm - 0.06 in   Overcast
6:53 PM 43.0°F 42.1°F 97% 29.57 in 7.0 miles Calm Calm - 0.06 in   Overcast
7:13 PM 42.8°F 41.0°F 93% 29.57 in 6.0 miles Calm Calm - N/A   Overcast
7:40 PM 42.8°F 41.0°F 93% 29.57 in 6.0 miles Calm Calm - N/A   Overcast
7:53 PM 42.1°F 41.0°F 96% 29.58 in 6.0 miles Calm Calm - N/A   Overcast
8:43 PM 42.8°F 41.0°F 93% 29.58 in 5.0 miles Calm Calm - 0.00 in Rain Light Rain
8:53 PM 42.1°F 41.0°F 96% 29.58 in 5.0 miles SE 3.5 mph - 0.00 in Rain Light Rain
9:53 PM 42.1°F 41.0°F 96% 29.60 in 6.0 miles Calm Calm - 0.00 in   Overcast
10:06 PM 41.0°F 41.0°F 100% 29.59 in 6.0 miles Calm Calm - N/A   Overcast
10:53 PM 42.1°F 41.0°F 96% 29.60 in 6.0 miles Calm Calm - 0.01 in   Overcast
11:53 PM 41.0°F 41.0°F 100% 29.61 in 5.0 miles East 5.8 mph - 0.00 in Rain Light Rain
Moon Phase
Dec. 11 Dec. 13 Dec. 20 Dec. 28 Jan. 04
Sunrise:07:58 AM (PST) Moon Rise:05:56 AM (PST)12/11
Sunset:04:25 PM (PST) Moon Set:03:12 PM (PST)12/11

Copyright © 2014 The Weather Underground, Inc.